Tracking 35237 objects as of 6-Sep-2026
HD Live streaming from Space Station
objects crossing your sky now

TIANXING-1 02


TIANXING-1 02 is no longer on orbit


NORAD ID: 58756
Int'l Code: 2024-008A
Launch date: January 11, 2024
Source: People's Republic of China (PRC)
Launch site: Jiuquan Satellite Launch Center, China (JSC)
Decay date: 2025-09-16
Your satellite tracking list
Your tracking list is empty




NASA's NSSDC Master Catalog

Two Line Element Set (TLE):
1 58756U 24008A   25259.37537501  .09101139  13006-5  72685-3 0  9999
2 58756  95.0994 178.3423 0008908 200.5406 159.5543 16.40065956 95883
Source of the keplerian elements: AFSPC